Location: North Mitre
(40.7833°S, 175.4667°E)
Time: 03:24:13
(UTC+00:00)

Nadezhda 1 Rocket - Pass Details

Date: 04 August 2024
Orbit: 941 x 1004 km, 83.0° (Epoch: 07 September)

Event Time Altitude Azimuth Distance (km) Brightness Sun altitude
Rises 17:41:42 0° 191° (S) 3,765 6.9 -18.9°
Reaches altitude 10° 17:44:17 10° 194° (SSW) 2,804 6.2 -18.4°
Maximum altitude 17:50:38 63° 272° (W) 1,115 4.0 -17.2°
Drops below altitude 10° 17:56:50 10° 352° (N) 2,736 6.4 -16.1°
Sets 17:59:20 0° 355° (N) 3,667 7.1 -15.6°
